Home   Weather   Camrose   Past weeks
Flag for Canada

Past Weather in Camrose, Alberta, Canada — Yesterday and Last 2 Weeks

Now
-8 °F

Passing clouds.


Feels Like: -21 °F
Forecast: 10 / -9 °F
Wind: 6 mph from West

Location: Edmonton International

Current Time: Apr 2, 2020 at 1:46:15 am

Latest Report: Apr 2, 2020 at 1:00 am


Visibility: 20 mi

Pressure: 30.49 "Hg (27.56 "Hg at 744m altitude)

Humidity: 84%

Dew Point: -11 °F

Location of CamroseLocation

Past Weather in Camrose — Graph

°F

Camrose Temperature Yesterday

Maximum temperature yesterday: 10 °F (at 4:00 pm)
Minimum temperature yesterday: -4 °F (at 4:00 am)
Average temperature yesterday: 4 °F

High & Low Weather Summary for the Past Weeks

 TemperatureHumidityPressure
High43 °F (Mar 27, 3:00 pm)100% (Mar 25, 3:00 am)30.65 "Hg (Mar 25, 3:00 am)
Low-8 °F (Mar 19, 5:00 am)41% (Mar 21, 7:00 pm)29.47 "Hg (Mar 26, 3:00 pm)
Average17 °F74%30.05 "Hg
* Reported Mar 18 12:00 am — Apr 2 12:00 am, Camrose. Weather by CustomWeather, © 2020

Note: Actual official high and low records may vary slightly from our data, if they occured in-between our weather recording intervals... More about our weather records

Camrose Weather History for the Previous 24 Hours

Scroll right to see more
 ConditionsComfort  
Time TempWeatherWind HumidityBarometerVisibility
12:00 am
Thu, Apr 2
-4 °FPassing clouds.5 mph77%30.49 "Hg20 mi
11:00 pm
Wed, Apr 1
1 °FPassing clouds.5 mph78%30.48 "Hg20 mi
10:00 pm1 °FSnow flurries. Passing clouds.6 mph71%30.49 "Hg15 mi
9:04 pm3 °FSnow flurries. Passing clouds.3 mph66%30.47 "Hg20 mi
8:00 pm7 °FPartly sunny.7 mph66%30.46 "Hg20 mi
7:00 pm9 °FBroken clouds.7 mph61%30.44 "Hg20 mi
6:00 pm10 °FLight mixture of precip. Partly sunny.14 mph61%30.43 "Hg15 mi
5:00 pm10 °FLight mixture of precip. Partly sunny.12 mph56%30.42 "Hg15 mi
4:33 pm10 °FLight mixture of precip. Partly sunny.12 mph61%30.41 "Hg15 mi
4:00 pm10 °FSnow flurries. Mostly cloudy.13 mph56%30.41 "Hg15 mi
3:00 pm9 °FSnow flurries. Mostly cloudy.10 mph56%30.41 "Hg15 mi
2:00 pm9 °FSnow flurries. Partly sunny.10 mph47%30.41 "Hg15 mi
1:00 pm9 °FSnow flurries. Mostly cloudy.15 mph51%30.42 "Hg12 mi
12:00 pm7 °FSnow flurries. Mostly cloudy.13 mph56%30.43 "Hg15 mi
11:55 am7 °FSnow flurries. Partly sunny.13 mph61%30.43 "Hg15 mi
11:40 am7 °FBroken clouds.14 mph56%30.44 "Hg20 mi
11:00 am5 °FLight snow. Broken clouds.14 mph66%30.44 "Hg15 mi
10:00 am3 °FLight snow. Partly sunny.15 mph66%30.45 "Hg12 mi
9:00 am3 °FLight snow. Overcast.14 mph66%30.45 "Hg6 mi
8:00 am1 °FLight snow. Partly sunny.12 mph71%30.44 "Hg15 mi
7:00 am0 °FLight snow. Overcast.12 mph71%30.43 "Hg15 mi
6:00 am-2 °FOvercast.9 mph77%30.43 "Hg15 mi
5:00 am-4 °FLight snow. Overcast.6 mph71%30.44 "Hg15 mi
4:00 am-4 °FLight snow. Passing clouds.8 mph77%30.43 "Hg20 mi
3:00 am-2 °FLight snow. Passing clouds.8 mph77%30.43 "Hg15 mi
2:00 am1 °FLight snow. Mostly cloudy.9 mph71%30.42 "Hg15 mi
1:00 am1 °FLight snow. Passing clouds.9 mph71%30.41 "Hg15 mi
Weather by CustomWeather, © 2020

See weather overview

Advertising